Flag for Germany Weather past 2 weeks in Sankt Augustin, North Rhine-Westphalia, Germany

Now
77 °F

Sunny.


Feels Like: 78 °F
Forecast: 59 / 87 °F
Wind: 7 mph from West

Location: Koeln / Bonn

Current Time: Jul 6, 2015 at 4:23:59 PM

Latest Report: Jul 6, 2015 at 3:50 PM


Visibility: 10 mi

Pressure: 30.15 "Hg

Humidity: 36%

Dew point: 48 °F

Location of Sankt AugustinLocation

Historic Weather in Sankt Augustin — Graph

°F

Sankt Augustin temperature yesterday

Maximum temperature yesterday: 93 °F (at 3:50 PM)
Minimum temperature yesterday: 63 °F (at 11:20 PM)
Average temperature yesterday: 75 °F

Past Weeks' High & Low Weather Summary

 TemperatureHumidityPressure
High97 °F (Jul 2, 4:20 PM)94% (Jun 22, 8:50 AM)30.24 "Hg (Jun 22, 8:50 AM)
Low48 °F (Jun 22, 11:50 PM)17% (Jun 30, 3:50 PM)29.68 "Hg (Jun 22, 9:20 PM)
Average69 °F63%30.08 "Hg
* Reported Jun 21 3:20 PM — Jul 6 3:20 PM, Sankt Augustin, Weather by CustomWeather, © 2015

Note: Actual official high and low records may vary slightly from our data, if they occured in-between our weather recording intervals... More about our weather records

Advertising

Sankt Augustin weather history for previous 24 hours

 ConditionsComfort  
Time TempWeatherWind HumidityBarometerVisibility
3:20 PM
Mon, Jul 6
77 °FPassing clouds.7 mph34%30.15 "HgN/A
2:50 PM75 °FPassing clouds.6 mph36%30.15 "HgN/A
2:20 PM75 °FPassing clouds.7 mph36%30.15 "HgN/A
1:50 PM75 °FSunny.9 mph39%30.15 "Hg10 mi
1:20 PM75 °FSunny.10 mph39%30.18 "Hg10 mi
12:50 PM73 °FSunny.9 mph41%30.18 "Hg10 mi
12:20 PM72 °FPassing clouds.9 mph47%30.18 "HgN/A
11:50 AM70 °FPassing clouds.8 mph46%30.18 "HgN/A
11:20 AM70 °FPassing clouds.9 mph53%30.18 "HgN/A
10:50 AM68 °FPassing clouds.8 mph60%30.21 "HgN/A
10:20 AM66 °FPassing clouds.8 mph64%30.21 "HgN/A
9:50 AM64 °FPassing clouds.8 mph68%30.21 "HgN/A
9:20 AM64 °FPassing clouds.7 mph64%30.18 "HgN/A
8:50 AM63 °FPassing clouds.7 mph73%30.18 "HgN/A
8:20 AM61 °FPassing clouds.7 mph77%30.18 "HgN/A
7:50 AM61 °FPassing clouds.5 mph77%30.18 "HgN/A
7:20 AM59 °FSunny.1 mph82%30.18 "Hg10 mi
6:50 AM59 °FSunny.5 mph82%30.18 "Hg10 mi
6:20 AM57 °FClear.5 mph88%30.18 "Hg10 mi
5:20 AM59 °FPassing clouds.8 mph88%30.15 "HgN/A
4:50 AM61 °FPassing clouds.6 mph88%30.15 "HgN/A
4:20 AM61 °FPassing clouds.6 mph88%30.15 "HgN/A
3:50 AM61 °FPassing clouds.5 mph94%30.15 "HgN/A
3:20 AM61 °FPartly cloudy.2 mph94%30.12 "HgN/A
2:50 AM61 °FPassing clouds.3 mph94%30.12 "HgN/A
2:20 AM61 °FPassing clouds.3 mph94%30.12 "HgN/A
1:50 AM61 °FPassing clouds.2 mph94%30.12 "HgN/A
1:20 AM63 °FFog.2 mph88%30.09 "HgN/A
12:50 AM63 °FFog.3 mph88%30.09 "HgN/A
12:20 AM63 °FFog.1 mph88%30.07 "HgN/A
11:50 PM
Sun, Jul 5
63 °FFog.3 mph88%30.07 "HgN/A
11:20 PM63 °FPassing clouds.3 mph88%30.07 "HgN/A
10:50 PM64 °FPartly cloudy.3 mph88%30.04 "HgN/A
10:20 PM64 °FRain showers. Partly sunny.8 mph88%30.04 "HgN/A
9:50 PM64 °FRain showers. Broken clouds.7 mph88%30.04 "HgN/A
9:20 PM64 °FThundershowers. Partly sunny.8 mph88%30.01 "HgN/A
8:50 PM68 °FRain showers. Broken clouds.7 mph78%30.01 "HgN/A
8:20 PM70 °FScattered showers. Scattered clouds.10 mph69%30.01 "HgN/A
7:50 PM70 °FThundershowers. Partly sunny.12 mph69%29.98 "HgN/A
7:20 PM70 °FPartly sunny.15 mph69%29.98 "HgN/A
6:50 PM70 °FPartly sunny.20 mph78%29.98 "HgN/A
6:20 PM73 °FThunderstorms. Broken clouds.16 mph83%29.95 "Hg4 mi
5:50 PM84 °FThundershowers. Broken clouds.20 mph51%29.89 "HgN/A
5:20 PM91 °FPartly sunny.20 mph44%29.86 "HgN/A
4:50 PM93 °FPartly sunny.9 mph44%29.86 "HgN/A
4:20 PM91 °FBroken clouds.10 mph46%29.86 "HgN/A
Weather by CustomWeather, © 2015

See weather overviewHow to use our weather pages